Location: *
(37.9500°N, 27.3666°E)
Time: 23:23:05
(UTC+00:00)

Cosmos 614 Rocket - Pass Details

Date: 31 May 2022
Orbit: 732 x 764 km, 74.1° (Epoch: 01 July)

Event Time Altitude Azimuth Distance (km) Brightness Sun altitude
Rises 00:05:04 0° 337° (NNW) 3,221 7.7 -24.2°
Reaches altitude 10° 00:07:27 10° 334° (NNW) 2,296 6.9 -23.9°
Maximum altitude 00:12:34 59° 256° (WSW) 877 4.0 -23.4°
Enters shadow 00:12:48 58° 243° (WSW) 882 4.0 -23.4°
